Location: Pasadena, ca
(34.1243°N, 118.1037°W)
Time: 22:58:03
(UTC-07:00)

Hubble Space Telescope - Pass Details

Date: 07 October 2017
Orbit: 537 x 541 km, 28.5° (Epoch: 16 October)

Event Time Altitude Azimuth Distance (km) Brightness Sun altitude
Exits shadow 04:12:03 12° 111° (ESE) 1,642 3.7 -33.5°
Drops below altitude 10° 04:12:28 10° 108° (ESE) 1,789 4.0 -33.4°
Sets 04:14:51 0° 100° (E) 2,681 5.2 -32.9°
